Regional Weather Roundup
Issued by NWS State College, PA

Home | Current Version | Previous Version | Text Only | Print | Product List | Glossary On
Versions: 1 2 3 4 5 6 7 8 9 10 11 12 13 14 15 16 17 18 19 20 21 22 23 24 25 26 27 28 29 30 31 32 33 34 35 36 37 38 39 40 41 42 43 44 45 46 47 48 49 50
000
ASUS41 KCTP 251910
RWRCTP

REGIONAL WEATHER ROUNDUP
NATIONAL WEATHER SERVICE STATE COLLEGE PA
200 PM EST SUN JAN 25 2015

Note: "fair" indicates few or no clouds below 12,000 feet with no
significant weather and/or obstructions to visibility.

* = STATION THAT DOES NOT REPORT PRECIPITATION /E.G. RAIN...SNOW...ETC/
    THUNDER OR FOG.

PAZ002>004-007>009-013>016-020>023-029>032-252000-
WESTERN PENNSYLVANIA

CITY           SKY/WX    TMP DP  RH WIND       PRES   REMARKS
ERIE           PTSUNNY   20  13  74 NE15      29.89R WCI   6
MEADVILLE      CLOUDY    25  15  66 NE7       29.79F
FRANKLIN*      CLOUDY    27  18  69 CALM      29.79F
NEW CASTLE     MIX PCPN  30  25  82 NE5       29.80F
BEAVER COUNTY  LGT SNOW  32  30  93 NE3       29.77
BUTLER*        CLOUDY    30  27  86 NE7       29.79S
PITTSBURGH INT DRIZZLE   35  32  88 CALM      29.76F FOG
PITTSBURGH     CLOUDY    35  30  82 CALM      29.76F FOG
INDIANA*       CLOUDY    32  32 100 VRB3      29.80F FOG
LATROBE        LGT SNOW  34  34 100 SW6       29.80F
WASHINGTON CO* CLOUDY    36  30  80 CALM      29.78F
$$

PAZ004>006-010>012-017>019-024>028-033>037-041-042-045-046-049>053-252000-
CENTRAL PENNSYLVANIA

CITY           SKY/WX    TMP DP  RH WIND       PRES   REMARKS
BRADFORD       CLOUDY    25   8  48 CALM      29.75S
DUBOIS         CLOUDY    28  22  78 N3        29.75F
CLEARFIELD     CLOUDY    31  24  75 CALM      29.77F
JOHNSTOWN      LGT SNOW  32  29  88 SW6       29.72F VSB 3/4
ALTOONA        CLOUDY    34  33  96 S5        29.76F FOG
STATE COLLEGE  CLOUDY    32  27  80 CALM      29.78F
WILLIAMSPORT   CLOUDY    38  15  39 NW5       29.81S
SELINSGROVE    CLOUDY    38  26  62 W3        29.81S
FT INDIANTOWN  CLOUDY    39  32  76 NW8       29.79F
CAPITAL CITY   CLOUDY    40  31  70 W10       29.80F
HARRISBURG     CLOUDY    37  31  78 NW7       29.80F
YORK           CLOUDY    40  30  67 W6        29.80S
$$

PAZ038>040-043-044-047-048-054-055-060>062-067>071-252000-
EASTERN PENNSYLVANIA

CITY           SKY/WX    TMP DP  RH WIND       PRES   REMARKS
SCRANTON       MOSUNNY   33  10  38 N10       29.79F
MOUNT POCONO   MOSUNNY   31  11  43 W10       29.72F
ALLENTOWN      CLOUDY    38  25  59 NW7       29.79F
QUAKERTOWN*    NOT AVBL
READING        CLOUDY    39  31  72 NW8       29.79F
LANCASTER      CLOUDY    39  31  72 W6        29.80R
COATESVILLE    CLOUDY    41  34  75 W9        29.80R
POTTSTOWN      CLOUDY    40  30  67 NW8       29.80F
BLUE BELL      PTSUNNY   43  32  65 W7        29.78S
DOYLESTOWN     CLOUDY    40  31  70 NW7       29.78F
WILLOW GROVE   NOT AVBL
NORTH PHILA    PTSUNNY   45  29  53 NW12G21   29.81S
PHILADELPHIA   PTSUNNY   46  29  51 W17       29.81S
$$


USA.gov is the U.S. government's official web portal to all federal, state and local government web resources and services.